TimeCDT,TemperatureF,Dew PointF,Humidity,Sea Level PressureIn,VisibilityMPH,Wind Direction,Wind SpeedMPH,Gust SpeedMPH,PrecipitationIn,Events,Conditions,WindDirDegrees,DateUTC
12:15 AM,37.4,30.2,75,30.17,10.0,ESE,13.8,-,N/A,,Clear,120,2012-10-30 05:15:00
12:35 AM,35.6,30.2,81,30.18,10.0,SE,15.0,-,N/A,,Clear,130,2012-10-30 05:35:00
12:54 AM,35.6,30.2,81,30.19,10.0,SE,15.0,-,N/A,,Clear,130,2012-10-30 05:54:00
1:14 AM,35.6,30.2,81,30.19,10.0,SE,12.7,-,N/A,,Clear,130,2012-10-30 06:14:00
1:34 AM,35.6,30.2,81,30.19,10.0,SE,13.8,-,N/A,,Clear,130,2012-10-30 06:34:00
2:34 AM,35.6,30.2,81,30.18,10.0,ESE,13.8,-,N/A,,Scattered Clouds,120,2012-10-30 07:34:00
2:54 AM,35.6,30.2,81,30.18,10.0,SE,12.7,-,N/A,,Clear,130,2012-10-30 07:54:00
3:34 AM,35.6,30.2,81,30.18,10.0,SE,12.7,-,N/A,,Scattered Clouds,130,2012-10-30 08:34:00
3:54 AM,35.6,30.2,81,30.18,10.0,ESE,11.5,-,N/A,,Scattered Clouds,120,2012-10-30 08:54:00
4:14 AM,35.6,30.2,81,30.17,10.0,ESE,12.7,-,N/A,,Scattered Clouds,120,2012-10-30 09:14:00
4:34 AM,35.6,30.2,81,30.18,10.0,SE,12.7,-,N/A,,Mostly Cloudy,130,2012-10-30 09:34:00
4:55 AM,35.6,30.2,81,30.18,10.0,SE,12.7,-,N/A,,Overcast,130,2012-10-30 09:55:00
5:15 AM,35.6,30.2,81,30.17,10.0,ESE,13.8,-,N/A,,Overcast,120,2012-10-30 10:15:00
5:34 AM,35.6,30.2,81,30.17,10.0,SE,12.7,-,N/A,,Overcast,130,2012-10-30 10:34:00
5:55 AM,37.4,28.4,70,30.17,10.0,SE,13.8,-,N/A,,Mostly Cloudy,130,2012-10-30 10:55:00
6:14 AM,37.4,28.4,70,30.17,10.0,SE,13.8,-,N/A,,Overcast,130,2012-10-30 11:14:00
6:34 AM,37.4,30.2,75,30.18,10.0,SE,13.8,-,N/A,,Overcast,130,2012-10-30 11:34:00
6:54 AM,37.4,30.2,75,30.17,10.0,ESE,13.8,-,N/A,,Overcast,120,2012-10-30 11:54:00
7:14 AM,37.4,30.2,75,30.17,10.0,ESE,15.0,-,N/A,,Overcast,120,2012-10-30 12:14:00
7:34 AM,37.4,30.2,75,30.16,10.0,SE,15.0,18.4,N/A,,Light Drizzle,130,2012-10-30 12:34:00
7:55 AM,37.4,30.2,75,30.17,10.0,SE,10.4,-,N/A,,Light Drizzle,130,2012-10-30 12:55:00
8:15 AM,35.6,30.2,81,30.17,10.0,SE,9.2,-,N/A,Rain,Light Rain,130,2012-10-30 13:15:00
8:34 AM,37.4,30.2,75,30.17,10.0,ESE,10.4,-,N/A,,Overcast,110,2012-10-30 13:34:00
8:54 AM,37.4,30.2,75,30.17,10.0,ESE,10.4,-,N/A,,Light Drizzle,110,2012-10-30 13:54:00
9:14 AM,37.4,30.2,75,30.17,10.0,ESE,12.7,-,N/A,Rain,Light Rain,120,2012-10-30 14:14:00
9:34 AM,37.4,30.2,75,30.17,10.0,ESE,12.7,-,N/A,,Light Drizzle,120,2012-10-30 14:34:00
9:55 AM,37.4,30.2,75,30.17,10.0,ESE,11.5,-,N/A,,Overcast,120,2012-10-30 14:55:00
10:14 AM,37.4,30.2,75,30.16,10.0,ESE,13.8,19.6,N/A,Rain,Light Rain,120,2012-10-30 15:14:00
10:34 AM,37.4,32.0,81,30.17,10.0,ESE,13.8,-,N/A,Rain,Light Rain,120,2012-10-30 15:34:00
10:54 AM,37.4,32.0,81,30.17,10.0,ESE,10.4,-,N/A,Rain,Light Rain,120,2012-10-30 15:54:00
11:14 AM,39.2,32.0,75,30.17,10.0,ESE,11.5,-,N/A,,Overcast,120,2012-10-30 16:14:00
11:34 AM,39.2,30.2,70,30.18,10.0,SE,11.5,-,N/A,Rain,Light Rain,130,2012-10-30 16:34:00
11:54 AM,39.2,30.2,70,30.17,10.0,SE,13.8,-,N/A,,Overcast,130,2012-10-30 16:54:00
12:14 PM,41.0,30.2,65,30.18,10.0,SE,9.2,-,N/A,,Overcast,140,2012-10-30 17:14:00
12:34 PM,41.0,30.2,65,30.18,10.0,SE,11.5,-,N/A,,Overcast,140,2012-10-30 17:34:00
12:54 PM,42.8,28.4,57,30.18,10.0,SE,10.4,-,N/A,,Overcast,140,2012-10-30 17:54:00
1:15 PM,42.8,28.4,57,30.17,10.0,SE,11.5,-,N/A,,Overcast,140,2012-10-30 18:15:00
1:34 PM,42.8,28.4,57,30.17,10.0,SE,11.5,-,N/A,,Overcast,140,2012-10-30 18:34:00
1:54 PM,42.8,28.4,57,30.16,10.0,SE,9.2,-,N/A,,Overcast,140,2012-10-30 18:54:00
2:14 PM,42.8,28.4,57,30.16,10.0,SE,8.1,-,N/A,,Overcast,140,2012-10-30 19:14:00
2:35 PM,44.6,28.4,53,30.15,10.0,SE,9.2,-,N/A,,Overcast,140,2012-10-30 19:35:00
2:54 PM,44.6,28.4,53,30.15,10.0,SE,11.5,-,N/A,,Mostly Cloudy,130,2012-10-30 19:54:00
3:14 PM,44.6,28.4,53,30.14,10.0,SE,12.7,-,N/A,,Scattered Clouds,140,2012-10-30 20:14:00
3:35 PM,44.6,26.6,49,30.15,10.0,SE,12.7,-,N/A,,Mostly Cloudy,140,2012-10-30 20:35:00
3:54 PM,44.6,28.4,53,30.15,10.0,SE,10.4,-,N/A,,Overcast,130,2012-10-30 20:54:00
4:14 PM,44.6,28.4,53,30.14,10.0,ESE,10.4,-,N/A,,Mostly Cloudy,120,2012-10-30 21:14:00
4:34 PM,44.6,28.4,53,30.13,10.0,ESE,11.5,-,N/A,,Mostly Cloudy,120,2012-10-30 21:34:00
4:54 PM,44.6,28.4,53,30.13,10.0,SE,9.2,-,N/A,,Mostly Cloudy,140,2012-10-30 21:54:00
5:14 PM,44.6,26.6,49,30.13,10.0,ESE,12.7,-,N/A,,Mostly Cloudy,120,2012-10-30 22:14:00
5:34 PM,44.6,28.4,53,30.12,10.0,ESE,10.4,-,N/A,,Overcast,120,2012-10-30 22:34:00
6:15 PM,42.8,28.4,57,30.12,10.0,ESE,8.1,-,N/A,,Overcast,110,2012-10-30 23:15:00
6:35 PM,41.0,28.4,61,30.12,10.0,ESE,8.1,-,N/A,,Mostly Cloudy,110,2012-10-30 23:35:00
6:54 PM,39.2,28.4,65,30.12,10.0,East,8.1,-,N/A,,Scattered Clouds,100,2012-10-30 23:54:00
7:15 PM,41.0,30.2,65,30.12,10.0,ESE,6.9,-,N/A,,Overcast,110,2012-10-31 00:15:00
7:34 PM,39.2,30.2,70,30.12,10.0,ESE,6.9,-,N/A,,Overcast,110,2012-10-31 00:34:00
7:54 PM,39.2,30.2,70,30.12,10.0,SE,6.9,-,N/A,,Overcast,130,2012-10-31 00:54:00
8:14 PM,41.0,30.2,65,30.12,10.0,ESE,5.8,-,N/A,,Overcast,120,2012-10-31 01:14:00
8:35 PM,39.2,30.2,70,30.10,10.0,SE,6.9,-,N/A,,Overcast,130,2012-10-31 01:35:00
8:54 PM,39.2,30.2,70,30.10,10.0,SE,4.6,-,N/A,,Overcast,140,2012-10-31 01:54:00
9:14 PM,35.6,30.2,81,30.09,10.0,ESE,8.1,-,N/A,,Scattered Clouds,120,2012-10-31 02:14:00
9:35 PM,35.6,28.4,75,30.09,10.0,SE,6.9,-,N/A,,Clear,130,2012-10-31 02:35:00
9:54 PM,35.6,30.2,81,30.09,10.0,SE,5.8,-,N/A,,Scattered Clouds,130,2012-10-31 02:54:00
10:14 PM,35.6,30.2,81,30.10,10.0,Calm,Calm,-,N/A,,Scattered Clouds,0,2012-10-31 03:14:00
10:34 PM,35.6,28.4,75,30.11,10.0,Calm,Calm,-,N/A,,Scattered Clouds,0,2012-10-31 03:34:00
10:54 PM,35.6,28.4,75,30.11,10.0,Calm,Calm,-,N/A,,Scattered Clouds,0,2012-10-31 03:54:00
11:14 PM,35.6,28.4,75,30.11,10.0,Calm,Calm,-,N/A,,Mostly Cloudy,0,2012-10-31 04:14:00
11:34 PM,33.8,28.4,81,30.10,10.0,ESE,3.5,-,N/A,,Overcast,120,2012-10-31 04:34:00
11:54 PM,33.8,30.2,87,30.10,10.0,ESE,4.6,-,N/A,,Overcast,110,2012-10-31 04:54:00